Weather Roundup
Issued by NWS

Home | Current Version | Previous Version | Text Only | Print | Product List | Glossary On
Versions: 1 2 3 4 5 6 7 8 9 10 11 12 13 14 15 16 17 18 19 20 21 22 23 24 25 26 27 28 29 30 31 32 33 34 35 36 37 38 39 40 41 42 43 44 45 46 47 48 49 50
000
NZUS93 KARX 251659
HRRWXR

CURRENT HOURLY OBSERVATIONS ACROSS
MUCH OF THE UPPER MISSISSIPPI VALLEY
NATIONAL WEATHER SERVICE LA CROSSE WI
1100 AM CST THU DEC 25 2014


...SOUTHEAST MINNESOTA...


CITY           SKY/WX    TMP DP  RH WIND       PRES   REMARKS
ROCHESTER      CLOUDY    31  28  89 S12       29.76R WCI  22
ROCHESTER/MAYO CLOUDY    32  29  90 S10G16    29.76S WCI  24
WINONA         CLOUDY    34  30  86 S7        29.81R WCI  28
AUSTIN         CLOUDY    32  28  86 S12       29.75R WCI  23
ALBERT LEA     CLOUDY    34  30  86 S8        29.74R WCI  27
DODGE CENTER   CLOUDY    32  30  93 S14       29.74S WCI  22
PRESTON        CLOUDY    31  28  90 S15       29.77S WCI  20
OWATONNA       CLOUDY    34  28  80 S12       29.74S WCI  25
FARIBAULT      CLOUDY    34  28  80 S9        29.74S WCI  26
$$

...ELSEWHERE IN MINNESOTA...


CITY           SKY/WX    TMP DP  RH WIND       PRES   REMARKS
MINNEAPOLIS    CLOUDY    33  27  78 S8        29.74R WCI  26
INTNL FALLS    CLOUDY    30  27  88 W9        29.63R WCI  22
DULUTH         CLOUDY    31  27  85 W12       29.65R WCI  22
RED WING       CLOUDY    34  28  80 S5        29.77R WCI  30
REDWOOD FALLS  CLOUDY    32  28  85 SW5       29.72R WCI  27
MANKATO        CLOUDY    34  27  75 S9        29.74R WCI  26
WORTHINGTON    CLOUDY    32 -17  11 CALM      29.70R
FAIRMONT       CLOUDY    34  27  75 S7        29.71S WCI  28
$$

...SOUTHWEST WISCONSIN...


CITY           SKY/WX    TMP DP  RH WIND       PRES   REMARKS
LA CROSSE      CLOUDY    35  28  75 S15       29.81S WCI  25
PRAIRIE DU CHI CLOUDY    36  29  75 SE3       29.84S
BOSCOBEL       CLOUDY    37  29  72 S9        29.86R WCI  30
LONE ROCK      NOT AVBL
PLATTEVILLE    PTSUNNY   34  31  89 S12       29.87S WCI  25
FORT MC COY    CLOUDY    33  28  82 S8        29.82S WCI  25
VIROQUA        CLOUDY    31  31 100 S8        29.81R WCI  24
WIS DELLS      NOT AVBL
$$

...ELSEWHERE IN WISCONSIN...


CITY           SKY/WX    TMP DP  RH WIND       PRES   REMARKS
MILWAUKEE      PTSUNNY   36  26  67 SW20G25   29.90S WCI  25
MADISON        CLOUDY    34  28  79 S16G22    29.87R WCI  24
GREEN BAY      CLOUDY    34  29  82 SW12      29.82R WCI  25
EAU CLAIRE     CLOUDY    32  26  78 SW10      29.77R WCI  24
BLACK RVR FLS  CLOUDY    33  28  79 SW9       29.80R WCI  26
MEDFORD        CLOUDY    29  26  87 SW13      29.74R WCI  19
WAUSAU         CLOUDY    31  26  82 SW12      29.76R WCI  22
WIS RAPIDS     CLOUDY    32  26  78 S10       29.81R WCI  24
MARSHFIELD     CLOUDY    31  26  82 SW12      29.77R WCI  22
RICE LAKE      CLOUDY    31  27  86 S8        29.76R WCI  24
$$

...NORTHEAST IOWA...


CITY           SKY/WX    TMP DP  RH WIND       PRES   REMARKS
DECORAH        CLOUDY    34  30  86 S12G17    29.79R WCI  25
MASON CITY     PTSUNNY   33  29  85 S14       29.76R WCI  23
CHARLES CITY   CLOUDY    34  32  93 S15       29.78S WCI  24
OELWEIN        CLOUDY    34  32  93 S18       29.81S WCI  23
$$

...ELSEWHERE IN IOWA...


CITY           SKY/WX    TMP DP  RH WIND       PRES   REMARKS
DES MOINES     PTSUNNY   41  30  65 S14       29.77S
IOWA CITY      PTSUNNY   38  31  76 S10       29.89S WCI  31
FORT DODGE     PTSUNNY   36  28  75 S12       29.74R WCI  27
$$

...NORTHERN ILLINOIS...


CITY           SKY/WX    TMP DP  RH WIND       PRES   REMARKS
CHICAGO-OHARE  PTSUNNY   36  27  69 SW17G24   29.95S WCI  26
CHICAGO-MIDWAY CLOUDY    38  29  70 SW20      29.97S WCI  28
MOLINE         MOSUNNY   40  31  70 S8G21     29.91R WCI  34
ROCKFORD       CLOUDY    36  29  75 SW12      29.94F WCI  28
PEORIA         MOSUNNY   42  32  67 S17G26    29.98S
$$

NOTE: "FAIR" INDICATES FEW OR NO CLOUDS BELOW 12,000 FEET WITH NO
SIGNIFICANT WEATHER AND/OR OBSTRUCTIONS TO VISIBILITY. WIND
SPEEDS ARE IN MILES-PER-HOUR.



USA.gov is the U.S. government's official web portal to all federal, state and local government web resources and services.